x

Buoy I01 - Eastern Maine Shelf (44034) Weather Station

1:04am - Thu 29th Jan 2015 All times are EST. -5 hours from GMT.

  • Wind
    18mph, 27mph gusts
  • Air Temp 21°f
  • Sea Pressure 1021.1mb
  • Buoy I01 - Eastern Maine Shelf
  • Buoy I01 - Eastern Maine Shelf

More Historic Weather Station data

Upgrade to MSW Pro to gain access to the past 30 days of data for over 8000 Wavebouys and Weather Stations around the globe.

Join Pro

Comparision Forecast

View Surf forecast
   
Thu 01/29 1:04am  -   -  18 27 mph 1021.1mb - 21f
12:04am 3ft 4s  -  mph - 42f -
Wed 01/28 7:04pm  -   -  16 29 mph 1016.2mb - 21f
2:04pm 4.5ft 5s  -  mph - 42f -
12:04pm 5.5ft 5s  -  mph - 42f -
10:04am 7.5ft 5s  -  mph - 43f -
7:04am  -   -  34 43 mph - - 22f
6:04am  -   -  34 40 mph - - 22f
5:04am  -   -  34 40 mph - - 22f
4:04am  -   -  34 43 mph - - 23f
3:04am  -   -  36 45 mph - - 22f
Tue 01/27 8:04pm 22.5ft 11s 40 49 mph - 42f 24f
5:04am 16.5ft 8s 45 54 mph 1006.8mb 44f 20f
4:04am  -   -  43 51 mph 1006.6mb - 23f
3:04am 13ft 8s 38 47 mph 1007.1mb 43f 22f
2:04am  -   -  38 45 mph 1014.1mb - 24f
1:04am 9.5ft 6s  -  mph - 43f -
Mon 01/26 11:04pm 8ft 6s  -  mph - 43f -
9:04pm 5ft 5s 29 43 mph 1020.5mb 43f 23f
7:04pm 3ft 4s 22 29 mph 1022.3mb 43f 21f
6:04pm 4.5ft 11s 20 25 mph 1021.8mb 43f 22f
4:04pm 4.5ft 11s 16 22 mph 1021.2mb 44f 20f
3:04pm 5ft 11s 13 18 mph 1021.4mb 44f 18f
2:04pm 4ft 11s 16 22 mph 1020.2mb 43f 17f
1:04pm 1.6ft 4s 13 18 mph 1020.7mb 43f 17f
12:04pm 3.5ft 11s 11 16 mph 1022mb 43f 16f
11:04am  -   -  9 16 mph 1022.8mb - 15f
10:04am 4.5ft 11s 16 20 mph 1022.3mb 43f 14f
9:04am 2.5ft 4s 16 20 mph 1022mb 43f 15f
8:04am 3ft 4s 16 22 mph 1021.3mb 43f 13f
7:04am 3.5ft 4s 20 25 mph 1020.1mb 43f 13f
6:04am 3.5ft 4s 22 27 mph 1019mb 43f 13f
5:04am 3.5ft 4s 25 29 mph 1017.6mb 43f 15f
4:04am 4ft 4s  -  mph - 43f -
3:04am 4.5ft 4s  -  mph - 43f -
2:04am 5ft 5s  -  mph - 43f -
Sun 01/25 11:04pm  -   -  29 34 mph 1013.4mb - 17f
10:04pm 6ft 6s 29 40 mph 1011.7mb 42f 19f
9:04pm 9ft 11s 31 40 mph 1010.3mb 43f 19f
8:04pm 4.5ft 4s 31 45 mph 1008.5mb 42f 21f
7:04pm 7ft 6s 29 38 mph 1006.6mb 42f 25f
6:04pm  -   -  29 36 mph 1004.6mb 43f 27f
5:04pm 8ft 8s 29 36 mph 1002.8mb 43f 28f
4:04pm  -   -  31 43 mph 1001.1mb 43f 28f
3:04pm 8.5ft 8s 29 36 mph 999.4mb 43f 30f
2:04pm 6ft 6s 29 38 mph 997.9mb 43f 31f
1:04pm  -   -  25 34 mph 996.8mb - 33f
12:04pm 5.5ft 5s 31 38 mph 995.6mb 43f 35f
11:04am 5.5ft 5s 31 38 mph 994.5mb 43f 37f
10:04am 9ft 11s 27 31 mph 993.8mb 43f 38f
9:04am 6.5ft 5s 25 31 mph 993.1mb 43f 38f
8:04am 4.5ft 5s 25 31 mph 992.2mb 43f 37f